Location: Atherton
(17.2661°S, 145.4859°E)
Time: 01:45:57
(UTC+10:00)

Transit 2A Rocket - All Passes

Search period start: 19 May 2026 00:00
Search period end: 29 May 2026 00:00
Orbit: 587 x 895 km, 66.7° (Epoch: 18 May)

Date Brightness Start Highest point End Pass type
(mag) Time Alt. Az. Time Alt. Az. Time Alt. Az.
19 May - 05:16:23 10° NNW 05:20:41 80° ENE 05:25:18 10° SSE visible
19 May - 15:52:11 10° SSW 15:58:06 59° ESE 16:03:59 10° NNE daylight
19 May - 17:37:36 10° W 17:40:00 12° WNW 17:42:24 10° NW daylight
20 May - 04:31:20 10° N 04:35:08 30° ENE 04:39:08 10° SE visible
20 May - 06:15:12 10° W 06:17:26 14° WSW 06:19:44 10° SSW visible
20 May - 15:07:09 10° S 15:12:18 29° ESE 15:17:26 10° NE daylight
20 May - 16:49:32 10° SW 16:54:30 27° WNW 16:59:24 10° NNW daylight
21 May - 03:47:55 10° NE 03:49:40 12° ENE 03:51:26 10° E visible
21 May - 05:27:38 10° NW 05:31:31 31° WSW 05:35:39 10° S visible
21 May - 14:23:09 10° SSE 14:26:23 15° ESE 14:29:36 10° E daylight
21 May - 16:03:03 10° SSW 16:08:55 56° WNW 16:14:43 10° N daylight
22 May - 04:41:26 10° NNW 04:45:45 79° WSW 04:50:25 10° SSE visible
22 May - 15:17:15 10° SSW 15:23:15 73° ESE 15:29:11 10° NNE daylight
23 May - 03:56:07 10° N 04:00:09 39° ENE 04:04:28 10° SE visible
23 May - 05:41:36 10° WSW 05:42:36 11° WSW 05:43:37 10° SW visible
23 May - 14:32:01 10° S 14:37:29 36° ESE 14:42:53 10° NE daylight
23 May - 16:15:06 10° WSW 16:19:34 22° WNW 16:24:01 10° NNW daylight
24 May - 03:11:59 10° NE 03:14:41 16° ENE 03:17:27 10° ESE night (unlit)
24 May - 04:53:01 10° WNW 04:56:39 25° WSW 05:00:29 10° S visible
24 May - 13:47:36 10° SSE 13:51:35 18° ESE 13:55:33 10° ENE daylight
24 May - 15:28:19 10° SW 15:34:01 45° WNW 15:39:39 10° N daylight
25 May - 04:06:33 10° NNW 04:10:50 60° WSW 04:15:29 10° SSE night (unlit)
25 May - 14:42:20 10° SSW 14:48:23 88° ESE 14:54:20 10° NNE daylight
26 May - 03:20:59 10° N 03:25:12 52° ENE 03:29:44 10° SSE night (unlit)
26 May - 13:56:57 10° S 14:02:39 43° ESE 14:08:16 10° NE daylight
26 May - 15:40:46 10° WSW 15:44:39 18° WNW 15:48:30 10° NNW daylight
27 May - 02:36:26 10° NNE 02:39:41 21° ENE 02:43:07 10° ESE night (unlit)
27 May - 04:18:31 10° WNW 04:21:47 20° WSW 04:25:14 10° SSW night (unlit)
27 May - 13:12:14 10° SSE 13:16:46 22° ESE 13:21:17 10° ENE daylight
27 May - 14:53:38 10° SW 14:59:07 37° WNW 15:04:30 10° N daylight
28 May - 03:31:43 10° NW 03:35:56 46° WSW 03:40:29 10° S night (unlit)
28 May - 12:29:51 10° SE 12:30:46 10° ESE 12:31:41 10° ESE daylight
28 May - 14:07:29 10° SSW 14:13:30 77° WNW 14:19:25 10° NNE daylight
